Regional Weather Roundup
Issued by NWS

Home | Current Version | Previous Version | Text Only | Print | Product List | Glossary On
Versions: 1 2 3 4 5 6 7 8 9 10 11 12 13 14 15 16 17 18 19 20 21 22 23 24 25 26 27
000
ASCA42 TJSJ 060010
RWRPR
PUERTO RICO/U.S. VIRGIN ISLANDS HOURLY WEATHER ROUNDUP
NATIONAL WEATHER SERVICE SAN JUAN PR
800 PM AST THU MAY 05 2016

PRZ001-004-060100-
PUERTO RICO

CITY           SKY/WX    TMP DP  RH WIND       PRES   REMARKS
SAN JUAN LMM   PTCLDY    81  75  83 E9        29.93R
AGUADILLA      CLEAR     79  75  89 CALM      29.93R
CEIBA          MOCLDY    79  75  89 SE9       29.96R
$$

PRZ006-007-060100-
U.S. VIRGIN ISLANDS

CITY           SKY/WX    TMP DP  RH WIND       PRES   REMARKS
CHARLOTTE AMA  PTCLDY    82  75  78 E16       29.94R
CHRISTIANSTED  MOCLDY    82  73  74 E10       29.95R
$$

HOURLY WEATHER ROUNDUP FOR THE NEWS MEDIA

CITY           SKY/WX    TMP DP  RH WIND       PRES   REMARKS
ORLANDO        CLEAR     75  42  30 W15       29.75R
NEW YORK       CLOUDY    54  44  69 N17       29.66R
NEWARK         CLOUDY    56  44  64 NE12      29.65R
CHICAGO        PTCLDY    57  38  48 E6        29.96F
HARTFORD       LGT RAIN  44  41  89 N17G30    29.62F
BOSTON         LGT RAIN  45  42  89 NE15      29.72F
DALLAS         MOSUNNY   80  44  27 NW9       29.98F
PHILADELPHIA   CLOUDY    58  44  60 NE13      29.64R
LOS ANGELES    MOSUNNY   67  45  45 W13G21    29.88F
WASHINGTON DC  LGT RAIN  54  49  83 N7        29.66R



USA.gov is the U.S. government's official web portal to all federal, state and local government web resources and services.